Location: ????? ???????
(25.7275°N, 32.5929°E)
Time: 11:22:01
(UTC+00:00)

FUSE - Pass Details

Date: 02 March 2021
Orbit: 742 x 756 km, 25.0° (Epoch: 16 April)

Event Time Altitude Azimuth Distance (km) Brightness Sun altitude
Rises 17:41:41 0° 270° (W) 3,193 8.6 -25.5°
Reaches altitude 10° 17:44:09 10° 270° (W) 2,269 7.5 -26.0°
Enters shadow 17:49:20 80° 227° (SW) 764 3.9 -27.2°
